THORAD AGENA D DEB, 4169

Orbit data source: Space-Track

THORAD AGENA D DEB, 4169 is space debris in LEO originally from a launch on Tue, 30 Sep 1969 UTC launched from the Air Force Western Test Range (AFWTR). Debris objects in space refer to the collection of defunct objects orbiting the Earth. Examples of debris include non-operational satellites, rocket bodies, and fragments generated from explosions, collisions, or faulty payload assembly.

Loading next visibility...
Identifier
4169, 1969-082AM
Orbit
LEO
Country
Flag of USUS
Related business
Manufacturer
Unknown
Mission
Spacecraft
Bus & Motor
Unknown
Mass
Unknown
Launch date (UTC)
1969-09-30 (57 years ago)
Launch vehicle
Unknown
Launch site
Air Force Western Test Range (AFWTR)
Object type
Payload
Rocket body
Debris
Shape & HBR
Unknown shape, 0.1 m
Radar Cross Section
Medium (>0.1 m² and <1 m²)

Expand to show TLE details & history
Last TLE update: 1 day ago

TLE from 1 day ago
0 THORAD AGENA D DEB
1 04169U 69082AM  26173.27796354  .00001601  00000-0  30313-3 0  9998
2 04169  70.1823  21.1197 0029886  12.7628 347.4265 14.65910891970318
Epoch: 2026-06-22T06:40Z
TLE epoch observation values (Epoch: 2026-06-22T06:40:16.049Z)
Latitude
-0.00005°
Longitude
10.58663°
Altitude
655.983 km
Speed
7.541 km/s
True Right ascension
01h 24m 28s
True Declination
0° 00' 00"
Sunlit
Object was in daylight at epoch
Visualization orbit readout
Latitude
Unknown
Longitude
Unknown
Altitude
Unknown
Speed
Unknown
Apparent Right ascension
Unknown
Apparent Declination
Unknown
Sunlit
N/A
Visualization observer readout
Local Sidereal Time
23:46:06
Azimuth
Unknown
Elevation
Unknown
Doppler factor
Unknown
Orbital elements
Apogee altitude
693.182 km
Perigee altitude
651.041 km
Semi-major axis
7,050.248 km
Eccentricity
0.00299
Inclination
70.1823°
RAAN
21.1197°
Arg. of periapsis
12.7628°
True anomaly
347.35167°
Mean anomaly
347.4265°
Eccentric anomaly
347.38911°
Mean motion
3.66637 °/min
Orbital period
98.19 mins
BSTAR
0.00030313

Documentation

Showing up to 5 results
|